Location: Petruro
(41.0333°N, 14.7833°E)
Time: 15:43:19
(UTC+00:00)

Cosmos 1833 Rocket - Pass Details

Date: 20 June 2021
Orbit: 832 x 840 km, 71.0° (Epoch: 30 July)

Event Time Altitude Azimuth Distance (km) Brightness Sun altitude
Exits shadow 02:40:01 - 203° (SSW) 2,730 4.8 -8.2°
Reaches altitude 10° 02:40:46 10° 203° (SSW) 2,444 4.6 -8.0°
Maximum altitude 02:46:23 87° 292° (WNW) 846 2.7 -7.2°
Drops below altitude 10° 02:52:04 10° 23° (NNE) 2,463 6.3 -6.4°
Sets 02:54:31 0° 24° (NNE) 3,402 7.1 -6.1°
